QPF
0.00 0.00 0.00 0.00 0.00 0.00 0.00 0.00 0.00 0.00 0.00 0.00 0.00 0.00 0.00 0.00 0.00 0.00 0.00 0.00 0.00 0.00 0.00 0.00 0.00 0.00 0.00 0.00 0.00 0.00 0.00 0.00 0.00 0.00 0.00 0.00 0.00 0.00 0.00 0.00 0.00 0.00 0.00 0.00
0.00 0.00 0.00 0.00 0.00 0.00 0.00 0.00 0.00 0.00 0.00 0.00 0.00 0.00 0.00 0.00 0.00 0.00 0.00 0.00 0.00 0.00 0.00 0.00 0.00 0.00 0.00 0.00 0.00 0.00 0.00 0.00 0.00 0.00 0.00 0.00 0.00 0.00 0.00 0.00 0.00 0.00 0.00 0.00
0.00 0.00 0.00 0.00 0.00 0.00 0.00 0.00 0.00 0.00 0.00 0.00 0.00 0.00 0.00 0.00 0.00 0.00 0.00 0.00 0.00 0.00 0.00 0.00 0.00 0.00 0.00 0.00 0.00 0.00 0.00 0.00 0.00 0.00 0.00 0.00 0.00 0.00 0.00 0.00 0.00 0.00 0.00 0.00
0.00 0.00 0.00 0.00 0.00 0.00 0.00 0.00 0.00 0.00 0.00 0.00 0.00 0.00 0.00 0.00 0.00 0.00 0.00 0.00 0.00 0.00 0.00 0.00 0.00 0.00 0.00 0.00 0.00 0.00 0.00 0.00 0.00 0.00 0.00 0.00 0.00 0.00 0.00 0.00 0.00 0.00 0.00 0.00
0.00 0.00 0.00 0.00 0.00 0.00 0.00 0.00 0.00 0.00 0.00 0.00 0.00 0.00 0.00 0.00 0.00 0.00 0.00 0.00 0.00 0.00 0.00 0.00 0.00 0.00 0.00 0.00 0.00 0.00 0.00 0.00 0.00 0.00 0.00 0.00 0.00 0.00 0.00 0.00 0.00 0.00 0.00 0.00
0.00 0.00 0.00 0.00 0.00 0.00 0.00 0.00 0.00 0.00 0.00 0.00 0.00 0.00 0.00 0.00 0.00 0.00 0.00 0.00 0.00 0.00 0.00 0.00 0.00 0.00 0.00 0.00 0.00 0.00 0.00 0.00 0.00 0.00 0.00 0.00 0.00 0.00 0.00 0.00 0.00 0.00 0.00 0.00
0.00 0.00 0.00 0.00 0.00 0.00 0.00 0.00 0.00 0.00 0.00 0.00 0.00 0.00 0.00 0.00 0.00 0.00 0.00 0.00 0.00 0.00 0.00 0.00 0.00 0.00 0.00 0.00 0.00 0.00 0.00 0.00 0.00 0.00 0.00 0.00 0.00 0.00 0.00 0.00 0.00 0.00 0.00 0.00
0.00 0.00 0.00 0.00 0.00 0.00 0.00 0.00 0.00 0.00 0.00 0.00 0.00 0.00 0.00 0.00 0.00 0.00 0.00 0.00 0.00 0.00 0.00 0.00 0.00 0.00 0.00 0.00 0.00 0.00 0.00 0.00 0.00 0.00 0.00 0.00 0.00 0.00 0.00 0.00 0.00 0.00 0.00 0.00
0.00 0.00 0.00 0.00 0.00 0.00 0.00 0.00 0.00 0.00 0.00 0.00 0.00 0.00 0.00 0.00 0.00 0.00 0.00 0.00 0.00 0.00 0.00 0.00 0.00 0.00 0.00 0.00 0.00 0.00 0.00 0.00 0.00 0.00 0.00 0.00 0.00 0.00 0.00 0.00 0.00 0.00 0.00 0.00
0.00 0.00 0.00 0.00 0.00 0.00 0.00 0.00 0.00 0.00 0.00 0.00 0.00 0.00 0.00 0.00 0.00 0.00 0.00 0.00 0.00 0.00 0.00 0.00 0.00 0.00 0.00 0.00 0.00 0.00 0.00 0.00 0.00 0.00 0.00 0.00 0.00 0.00 0.00 0.00 0.00 0.00 0.00 0.00
0.00 0.00 0.00 0.00 0.00 0.00 0.00 0.00 0.00 0.00 0.00 0.00 0.00 0.00 0.00 0.00 0.00 0.00 0.00 0.00 0.00 0.00 0.00 0.00 0.00 0.00 0.00 0.00 0.00 0.00 0.00 0.00 0.00 0.00 0.00 0.00 0.00 0.00 0.00 0.00 0.00 0.00 0.00 0.00
0.00 0.00 0.00 0.00 0.00 0.00 0.00 0.00 0.00 0.00 0.00 0.00 0.00 0.00 0.00 0.00 0.00 0.00 0.00 0.00 0.00 0.00 0.00 0.00 0.00 0.00 0.00 0.00 0.00 0.00 0.00 0.00 0.00 0.00 0.00 0.00 0.00 0.00 0.00 0.00 0.00 0.00 0.00 0.00
0.00 0.00 0.00 0.00 0.00 0.00 0.00 0.00 0.00 0.00 0.00 0.00 0.00 0.00 0.00 0.00 0.00 0.00 0.00 0.00 0.00 0.00 0.00 0.00 0.00 0.00 0.00 0.00 0.00 0.00 0.00 0.00 0.00 0.00 0.00 0.00 0.00 0.00 0.00 0.00 0.00 0.00 0.00 0.00
0.00 0.00 0.00 0.00 0.00 0.00 0.00 0.00 0.00 0.00 0.00 0.00 0.00 0.00 0.00 0.00 0.00 0.00 0.00 0.00 0.00 0.00 0.00 0.00 0.00 0.00 0.00 0.01 0.01 0.02 0.02 0.00 0.00 0.00 0.00 0.00 0.00 0.00 0.00 0.00 0.00 0.00 0.00 0.00
0.00 0.00 0.00 0.00 0.00 0.00 0.00 0.00 0.00 0.00 0.00 0.00 0.00 0.00 0.00 0.00 0.00 0.00 0.00 0.00 0.00 0.00 0.00 0.00 0.00 0.00 0.00 0.02 0.02 0.02 0.02 0.00 0.00 0.00 0.00 0.00 0.00 0.00 0.00 0.00 0.00 0.00 0.00 0.00
0.00 0.00 0.00 0.00 0.00 0.00 0.00 0.00 0.00 0.00 0.00 0.00 0.00 0.00 0.00 0.00 0.00 0.00 0.00 0.00 0.00 0.00 0.00 0.01 0.03 0.01 0.00 0.01 0.02 0.02 0.01 0.00 0.00 0.00 0.00 0.00 0.00 0.00 0.00 0.00 0.00 0.00 0.00 0.00
0.00 0.00 0.00 0.00 0.00 0.00 0.00 0.00 0.00 0.00 0.00 0.00 0.00 0.00 0.00 0.00 0.00 0.00 0.00 0.00 0.00 0.00 0.01 0.02 0.04 0.04 0.02 0.02 0.01 0.00 0.01 0.00 0.00 0.00 0.00 0.00 0.00 0.00 0.00 0.00 0.00 0.00 0.00 0.00
0.00 0.00 0.00 0.00 0.00 0.00 0.00 0.00 0.00 0.00 0.00 0.00 0.00 0.00 0.00 0.00 0.00 0.00 0.00 0.00 0.01 0.01 0.02 0.02 0.05 0.06 0.04 0.02 0.00 0.00 0.00 0.01 0.01 0.00 0.00 0.00 0.00 0.00 0.00 0.00 0.00 0.00 0.00 0.00
0.00 0.00 0.00 0.00 0.00 0.00 0.00 0.00 0.00 0.00 0.00 0.00 0.00 0.00 0.00 0.00 0.00 0.01 0.01 0.01 0.03 0.03 0.03 0.03 0.01 0.03 0.07 0.07 0.02 0.00 0.00 0.02 0.01 0.02 0.02 0.04 0.04 0.06 0.03 0.01 0.01 0.02 0.04 0.02
0.00 0.00 0.00 0.00 0.00 0.00 0.00 0.00 0.00 0.00 0.00 0.00 0.00 0.00 0.00 0.00 0.00 0.01 0.02 0.02 0.04 0.05 0.04 0.04 0.05 0.01 0.02 0.01 0.01 0.01 0.01 0.02 0.05 0.04 0.11 0.12 0.17 0.16 0.14 0.16 0.16 0.14 0.07 0.05
0.00 0.00 0.00 0.00 0.00 0.00 0.00 0.00 0.00 0.00 0.00 0.00 0.00 0.00 0.00 0.00 0.00 0.01 0.04 0.08 0.09 0.12 0.09 0.04 0.04 0.03 0.06 0.01 0.00 0.00 0.01 0.03 0.07 0.06 0.09 0.16 0.20 0.16 0.16 0.18 0.22 0.19 0.16 0.13
0.00 0.00 0.00 0.00 0.00 0.00 0.00 0.00 0.00 0.00 0.00 0.00 0.00 0.00 0.00 0.00 0.00 0.01 0.05 0.16 0.29 0.27 0.21 0.17 0.10 0.01 0.05 0.03 0.01 0.01 0.01 0.01 0.02 0.11 0.19 0.14 0.30 0.35 0.24 0.26 0.35 0.37 0.31 0.27
0.00 0.00 0.00 0.00 0.00 0.00 0.00 0.00 0.00 0.00 0.00 0.00 0.00 0.00 0.00 0.00 0.00 0.08 0.10 0.28 0.45 0.39 0.20 0.20 0.21 0.16 0.03 0.00 0.00 0.02 0.01 0.02 0.02 0.03 0.07 0.20 0.29 0.29 0.36 0.48 0.20 0.05 0.04 0.08
0.00 0.00 0.00 0.00 0.00 0.00 0.00 0.00 0.00 0.00 0.00 0.00 0.00 0.01 0.01 0.00 0.01 0.06 0.17 0.82 1.03 0.86 0.61 0.30 0.09 0.17 0.21 0.08 0.01 0.01 0.01 0.01 0.01 0.01 0.03 0.05 0.09 0.15 0.15 0.13 0.15 0.09 0.07 0.03
0.00 0.00 0.00 0.00 0.00 0.00 0.00 0.00 0.00 0.00 0.00 0.00 0.00 0.01 0.06 0.04 0.03 0.06 0.37 1.00 1.19 1.00 0.89 0.26 0.03 0.07 0.10 0.10 0.04 0.02 0.03 0.02 0.02 0.08 0.06 0.09 0.13 0.16 0.20 0.30 0.33 0.27 0.17 0.21
0.00 0.00 0.00 0.00 0.00 0.01 0.03 0.01 0.01 0.01 0.00 0.00 0.02 0.06 0.17 0.19 0.19 0.16 0.38 0.70 1.08 0.88 0.53 0.34 0.14 0.06 0.05 0.04 0.02 0.00 0.00 0.00 0.02 0.07 0.13 0.10 0.13 0.20 0.30 0.27 0.23 0.18 0.16 0.15
MSLP
1010.18 1009.80 1009.90 1010.17 1010.00 1009.92 1009.98 1010.10 1009.79 1009.70 1009.77 1009.89 1009.45 1009.17 1009.42 1010.08 1010.47 1010.75 1011.24 1011.83 1012.05 1012.29 1012.79 1013.54 1014.09 1014.70 1015.19 1015.89 1016.63 1017.09 1017.65 1018.04 1018.45 1018.73 1018.95 1019.20 1019.21 1019.42 1019.52 1019.64 1020.02 1020.39 1020.61 1020.77
1010.39 1010.26 1010.66 1010.66 1010.46 1010.26 1010.04 1010.01 1009.82 1009.70 1009.49 1009.53 1008.86 1008.58 1008.45 1009.13 1009.45 1009.70 1010.25 1010.74 1011.22 1011.83 1012.23 1012.81 1013.49 1014.09 1014.64 1015.10 1015.77 1016.53 1017.04 1017.59 1018.01 1018.29 1018.49 1018.72 1018.81 1018.95 1019.01 1019.25 1019.66 1020.06 1020.37 1020.60
1010.54 1010.97 1010.98 1010.77 1010.61 1010.37 1010.36 1010.13 1009.99 1009.95 1009.41 1009.02 1008.63 1008.01 1008.14 1008.58 1009.03 1009.52 1009.72 1010.10 1010.35 1010.60 1011.25 1012.03 1012.62 1013.22 1013.76 1014.38 1015.05 1015.67 1016.26 1016.89 1017.38 1017.79 1018.22 1018.46 1018.62 1018.78 1018.91 1019.11 1019.31 1019.57 1020.06 1020.27
1011.40 1011.74 1011.41 1011.12 1010.93 1010.93 1010.55 1010.61 1010.41 1009.81 1009.27 1008.51 1008.54 1007.52 1007.56 1007.73 1008.01 1008.44 1008.82 1009.20 1009.47 1009.75 1010.27 1010.89 1011.71 1012.24 1012.86 1013.34 1013.99 1014.80 1015.53 1016.16 1016.85 1017.36 1017.64 1017.75 1017.66 1017.91 1018.14 1018.55 1018.87 1019.12 1019.68 1019.93
1012.51 1012.18 1011.86 1011.67 1011.85 1011.61 1011.21 1011.01 1010.66 1010.08 1009.41 1009.02 1008.21 1007.89 1006.99 1007.42 1007.23 1007.35 1007.52 1007.66 1008.11 1008.67 1009.37 1009.70 1010.28 1010.86 1011.62 1012.55 1013.25 1013.96 1014.75 1015.48 1016.14 1016.74 1016.96 1017.25 1017.33 1017.38 1017.82 1018.22 1018.59 1018.91 1019.25 1019.66
1012.91 1013.00 1012.71 1012.64 1012.31 1012.11 1011.86 1011.19 1010.86 1010.62 1009.75 1008.45 1007.98 1007.69 1006.21 1006.40 1006.17 1006.20 1006.73 1007.19 1007.42 1007.71 1008.18 1008.78 1009.65 1010.40 1011.01 1011.69 1012.49 1013.25 1014.03 1014.66 1015.44 1016.07 1016.50 1016.75 1016.80 1017.12 1017.44 1017.81 1018.05 1018.30 1018.61 1018.85
1013.46 1013.47 1013.37 1013.21 1012.50 1012.20 1011.96 1011.38 1010.68 1010.19 1009.52 1007.97 1008.38 1007.66 1006.31 1006.15 1006.44 1006.57 1006.50 1006.46 1006.54 1006.71 1007.07 1007.67 1008.40 1009.08 1009.79 1010.58 1011.49 1012.38 1013.24 1013.90 1014.64 1015.35 1015.80 1016.18 1016.41 1016.74 1017.05 1017.42 1017.64 1017.75 1018.03 1018.28
1014.03 1014.04 1013.91 1013.80 1013.51 1013.13 1012.85 1012.64 1011.85 1010.91 1009.91 1009.06 1009.14 1007.32 1006.23 1006.50 1006.87 1007.22 1007.23 1006.95 1006.54 1005.96 1006.40 1006.52 1006.60 1007.52 1008.51 1009.42 1010.22 1011.11 1012.11 1012.93 1013.70 1014.40 1014.96 1015.52 1015.98 1016.17 1016.41 1016.83 1016.96 1017.21 1017.35 1017.54
1014.81 1014.55 1014.59 1014.34 1014.15 1013.99 1013.51 1013.34 1013.59 1012.52 1012.13 1010.84 1008.92 1007.74 1007.08 1006.78 1006.93 1007.25 1007.27 1007.26 1007.13 1006.87 1006.02 1005.69 1006.07 1006.52 1007.13 1008.11 1009.02 1009.89 1010.84 1011.71 1012.56 1013.32 1014.10 1014.78 1015.33 1015.76 1015.75 1016.11 1016.57 1016.72 1016.98 1017.05
1015.74 1015.27 1015.14 1014.79 1014.55 1014.49 1014.02 1014.22 1013.88 1013.38 1012.25 1010.92 1009.25 1008.56 1007.25 1007.47 1007.90 1007.78 1007.59 1007.34 1007.39 1007.15 1006.34 1005.47 1004.81 1005.43 1006.10 1006.82 1007.65 1008.98 1009.70 1010.38 1011.14 1012.14 1013.08 1013.77 1014.40 1014.95 1015.34 1015.66 1015.92 1016.16 1016.40 1016.70
1016.14 1016.12 1015.65 1015.46 1015.01 1014.85 1014.65 1014.29 1014.35 1014.11 1013.46 1011.89 1010.40 1008.38 1008.39 1008.73 1008.92 1008.69 1008.36 1008.37 1007.94 1007.19 1006.26 1005.32 1003.82 1004.40 1005.39 1006.30 1007.31 1007.84 1008.79 1009.52 1010.39 1011.26 1012.05 1012.82 1013.50 1014.09 1014.61 1014.89 1015.22 1015.56 1015.92 1016.27
1017.06 1016.59 1015.92 1015.57 1015.72 1015.95 1015.35 1015.01 1014.74 1014.18 1013.92 1013.23 1012.17 1009.11 1008.61 1009.17 1009.19 1009.37 1008.79 1008.47 1008.00 1007.62 1006.53 1005.56 1003.69 1003.83 1004.64 1005.27 1006.01 1006.71 1007.52 1008.44 1009.07 1009.97 1010.85 1011.60 1012.36 1013.11 1013.60 1014.01 1014.37 1014.81 1015.16 1015.54
1017.00 1017.08 1016.42 1015.74 1016.20 1016.00 1015.59 1015.50 1015.46 1015.46 1015.03 1013.43 1012.33 1009.36 1009.17 1009.07 1008.91 1008.88 1008.99 1008.64 1008.75 1007.90 1006.86 1005.81 1004.41 1003.83 1004.22 1004.99 1005.53 1006.07 1006.91 1007.50 1008.29 1009.11 1009.98 1010.73 1011.30 1011.99 1012.47 1013.01 1013.60 1014.10 1014.51 1014.79
1017.41 1017.11 1016.57 1015.92 1015.59 1016.07 1015.99 1015.82 1015.70 1015.54 1014.61 1013.12 1011.33 1009.89 1010.08 1010.20 1010.25 1009.99 1009.59 1009.26 1009.16 1008.44 1007.65 1006.77 1005.73 1004.50 1004.54 1004.77 1005.30 1006.02 1006.78 1007.36 1007.82 1008.44 1009.13 1009.69 1010.20 1010.69 1011.28 1011.98 1012.67 1013.18 1013.68 1014.07
1017.68 1017.30 1017.18 1016.76 1016.57 1016.29 1016.06 1015.84 1015.62 1015.11 1014.34 1013.41 1011.66 1010.37 1010.31 1010.51 1010.69 1010.53 1010.33 1009.94 1009.55 1009.05 1008.32 1007.71 1006.80 1005.70 1005.21 1005.18 1005.50 1005.91 1006.30 1006.89 1007.58 1008.23 1008.57 1008.72 1009.10 1009.89 1010.73 1011.22 1011.73 1012.36 1012.91 1013.25
1018.48 1017.83 1017.87 1017.13 1016.74 1016.41 1015.80 1015.41 1015.09 1014.51 1013.90 1012.93 1012.43 1010.55 1010.76 1010.65 1011.01 1010.70 1010.49 1010.29 1009.95 1009.49 1009.07 1008.45 1007.58 1006.62 1005.59 1005.49 1005.56 1006.07 1006.05 1006.31 1006.94 1007.68 1008.03 1008.41 1008.96 1009.43 1009.71 1010.30 1010.87 1011.61 1012.05 1012.42
1018.62 1018.29 1018.17 1017.06 1017.00 1016.59 1015.65 1014.56 1014.03 1013.47 1013.09 1012.72 1011.84 1010.85 1010.76 1010.90 1010.98 1010.96 1010.62 1010.60 1010.29 1009.77 1009.45 1008.93 1008.35 1007.61 1006.62 1005.76 1005.41 1005.33 1005.73 1006.51 1006.97 1007.07 1007.83 1008.47 1008.64 1009.00 1009.39 1009.79 1010.48 1010.73 1011.13 1011.61
1019.02 1018.97 1018.67 1017.51 1017.25 1015.80 1014.24 1014.27 1014.09 1013.60 1012.92 1012.73 1012.42 1011.74 1011.44 1011.26 1011.34 1011.15 1010.88 1010.76 1010.63 1010.15 1009.59 1009.21 1008.59 1007.74 1007.06 1006.47 1005.98 1005.25 1005.63 1006.44 1006.50 1006.65 1007.37 1008.05 1008.51 1008.62 1009.16 1009.59 1009.85 1010.25 1010.64 1010.85
1019.58 1019.33 1018.57 1018.03 1016.99 1015.50 1014.86 1013.97 1014.34 1014.24 1013.40 1013.69 1013.48 1012.67 1012.01 1011.60 1011.58 1010.80 1010.88 1011.41 1011.36 1010.82 1009.94 1009.39 1008.84 1008.16 1007.42 1006.80 1006.01 1005.89 1005.75 1006.51 1006.67 1006.02 1006.97 1007.77 1008.03 1008.13 1008.50 1009.07 1009.39 1009.50 1009.96 1010.14
1019.91 1019.83 1019.13 1018.47 1017.34 1015.45 1014.74 1014.94 1015.19 1015.20 1014.29 1014.48 1014.36 1013.92 1013.49 1012.96 1011.72 1011.12 1011.53 1011.65 1011.53 1010.92 1010.33 1009.49 1008.76 1008.33 1007.64 1007.00 1006.17 1006.25 1006.28 1006.29 1006.22 1006.58 1006.52 1007.16 1007.38 1007.62 1008.01 1008.65 1009.14 1009.55 1009.72 1010.21
1019.32 1019.25 1018.83 1018.10 1017.47 1015.87 1015.42 1015.62 1015.78 1015.41 1015.22 1014.98 1014.81 1014.31 1014.14 1014.10 1013.38 1012.24 1011.99 1011.51 1011.54 1011.59 1010.62 1009.65 1008.79 1008.35 1007.95 1007.27 1006.41 1006.17 1006.66 1007.24 1007.19 1007.37 1007.44 1007.55 1007.32 1007.97 1007.34 1008.90 1008.97 1009.39 1010.03 1010.41
1019.34 1019.08 1018.57 1018.48 1017.63 1016.08 1016.08 1015.85 1015.95 1015.61 1015.36 1015.67 1015.33 1014.64 1013.91 1013.60 1013.37 1012.68 1012.02 1011.63 1011.41 1011.00 1009.92 1009.67 1009.16 1008.56 1008.42 1007.76 1007.27 1006.81 1007.00 1007.42 1007.50 1006.81 1007.31 1007.43 1008.35 1008.81 1008.75 1009.00 1009.82 1008.93 1010.08 1010.50
1019.41 1019.05 1018.73 1018.45 1016.88 1016.17 1016.51 1016.42 1016.36 1016.27 1016.00 1015.46 1014.97 1014.21 1013.83 1013.22 1012.86 1012.37 1011.96 1011.79 1011.38 1010.42 1009.68 1008.99 1009.16 1008.49 1008.40 1008.38 1007.75 1007.48 1007.78 1008.08 1008.21 1007.99 1007.79 1008.36 1008.73 1009.30 1009.14 1009.15 1009.29 1010.25 1010.22 1010.24
1018.82 1018.98 1018.66 1018.21 1016.58 1016.46 1016.19 1016.16 1016.01 1015.98 1015.74 1015.10 1014.51 1013.85 1013.35 1012.76 1012.57 1012.23 1012.18 1011.86 1010.76 1010.15 1011.24 1011.08 1008.44 1008.67 1008.36 1009.22 1009.10 1008.47 1008.43 1008.32 1008.47 1008.67 1008.79 1008.41 1008.51 1008.35 1008.84 1009.63 1010.34 1010.80 1009.87 1010.43
1018.41 1018.67 1017.70 1017.23 1016.72 1016.42 1015.93 1015.96 1015.82 1015.75 1015.39 1014.58 1013.88 1013.42 1012.58 1012.39 1012.31 1012.51 1012.51 1012.24 1010.91 1012.34 1012.20 1011.47 1009.64 1010.17 1010.14 1010.28 1010.01 1009.61 1008.84 1008.56 1008.61 1008.73 1009.26 1009.09 1008.82 1009.13 1009.25 1010.38 1010.77 1010.85 1010.17 1010.29
1017.86 1017.18 1017.04 1016.26 1016.21 1016.54 1016.01 1016.06 1015.94 1015.64 1015.07 1014.65 1014.01 1013.52 1012.76 1012.89 1012.53 1012.50 1012.66 1012.92 1011.93 1013.56 1013.32 1011.42 1011.14 1010.94 1010.55 1010.32 1010.23 1010.05 1009.62 1009.09 1008.92 1009.13 1009.46 1009.71 1009.58 1009.79 1010.06 1010.82 1011.01 1010.89 1010.79 1010.72
Thickness
5776 5771 5760 5765 5775 5777 5774 5769 5769 5785 5797 5789 5794 5799 5806 5802 5801 5799 5797 5794 5795 5797 5802 5799 5796 5794 5792 5788 5781 5779 5777 5775 5773 5772 5771 5772 5774 5777 5779 5780 5779 5778 5777 5777
5766 5755 5764 5768 5771 5771 5770 5760 5767 5780 5792 5787 5795 5795 5812 5810 5807 5808 5805 5802 5801 5800 5800 5801 5798 5796 5795 5794 5790 5785 5783 5781 5778 5778 5779 5778 5779 5781 5784 5784 5782 5780 5779 5779
5753 5756 5763 5763 5762 5762 5761 5759 5760 5762 5781 5790 5790 5791 5796 5806 5813 5812 5812 5812 5810 5808 5804 5802 5802 5800 5800 5797 5795 5792 5789 5787 5785 5784 5782 5782 5783 5783 5783 5785 5786 5784 5782 5781
5747 5750 5751 5753 5752 5758 5747 5764 5763 5767 5766 5761 5787 5765 5791 5803 5806 5812 5813 5813 5814 5814 5814 5811 5807 5808 5805 5804 5804 5801 5796 5792 5789 5787 5785 5785 5787 5785 5787 5787 5788 5786 5784 5784
5728 5737 5740 5739 5738 5749 5746 5758 5757 5762 5762 5759 5774 5765 5791 5794 5799 5808 5816 5821 5822 5821 5817 5816 5814 5814 5813 5810 5806 5804 5801 5797 5793 5790 5790 5788 5789 5793 5792 5791 5788 5788 5787 5785
5728 5738 5738 5735 5740 5742 5747 5751 5750 5747 5756 5744 5770 5766 5786 5794 5806 5815 5819 5819 5821 5823 5822 5821 5819 5816 5812 5814 5810 5807 5803 5800 5797 5793 5792 5791 5792 5791 5791 5790 5789 5790 5790 5789
5718 5720 5730 5732 5731 5741 5741 5739 5727 5726 5729 5745 5758 5758 5783 5803 5805 5808 5811 5819 5825 5827 5828 5824 5821 5820 5818 5816 5814 5810 5806 5802 5800 5796 5794 5793 5794 5794 5791 5790 5790 5791 5790 5790
5698 5697 5714 5722 5719 5716 5719 5720 5714 5698 5718 5737 5741 5748 5780 5798 5803 5801 5805 5812 5821 5829 5828 5829 5833 5829 5823 5821 5819 5816 5811 5806 5804 5801 5797 5795 5794 5795 5795 5793 5793 5793 5793 5792
5689 5692 5708 5712 5714 5715 5711 5705 5710 5708 5700 5706 5737 5756 5778 5791 5789 5792 5794 5800 5803 5811 5827 5834 5832 5832 5829 5825 5823 5821 5816 5812 5808 5805 5800 5796 5795 5794 5796 5796 5794 5794 5793 5793
5686 5679 5692 5698 5707 5707 5706 5708 5697 5696 5685 5689 5722 5721 5744 5757 5761 5773 5781 5789 5794 5802 5816 5830 5840 5837 5836 5833 5830 5821 5820 5816 5814 5809 5804 5800 5797 5795 5794 5794 5794 5794 5793 5791
5684 5677 5682 5685 5685 5683 5689 5691 5689 5690 5688 5689 5693 5724 5749 5741 5746 5754 5770 5776 5785 5796 5809 5823 5843 5842 5835 5830 5825 5824 5819 5816 5813 5811 5807 5802 5799 5797 5794 5795 5794 5793 5791 5790
5666 5669 5664 5671 5680 5674 5679 5676 5681 5675 5673 5681 5679 5713 5753 5742 5745 5746 5756 5767 5779 5787 5800 5812 5838 5840 5835 5832 5829 5828 5827 5821 5819 5815 5811 5807 5802 5798 5796 5796 5796 5794 5793 5791
5663 5652 5647 5659 5661 5668 5667 5669 5668 5662 5660 5668 5668 5710 5736 5736 5738 5742 5740 5755 5760 5774 5789 5802 5822 5831 5830 5826 5825 5826 5823 5824 5821 5814 5809 5805 5803 5800 5799 5796 5794 5792 5791 5791
5654 5647 5648 5648 5654 5654 5647 5652 5655 5652 5651 5666 5684 5699 5708 5710 5711 5723 5730 5738 5744 5757 5771 5784 5799 5816 5819 5820 5819 5816 5814 5813 5812 5811 5807 5805 5804 5803 5801 5798 5793 5791 5790 5787
5643 5634 5635 5641 5641 5643 5641 5641 5641 5640 5651 5648 5676 5687 5697 5697 5700 5708 5714 5723 5729 5737 5752 5763 5778 5793 5802 5805 5807 5810 5810 5810 5807 5803 5802 5805 5806 5802 5797 5796 5794 5790 5787 5787
5622 5621 5615 5621 5629 5629 5629 5637 5638 5642 5646 5651 5652 5672 5690 5693 5690 5696 5701 5706 5714 5723 5733 5743 5759 5776 5790 5795 5796 5793 5800 5804 5803 5798 5799 5799 5797 5795 5795 5793 5791 5785 5784 5783
5614 5612 5605 5611 5610 5609 5608 5628 5636 5644 5651 5650 5645 5670 5678 5674 5675 5678 5687 5690 5699 5711 5718 5727 5738 5753 5770 5782 5789 5792 5793 5791 5788 5790 5789 5787 5790 5789 5789 5789 5783 5783 5781 5780
5596 5594 5592 5600 5597 5597 5626 5628 5629 5630 5643 5645 5644 5655 5659 5659 5664 5669 5674 5677 5684 5697 5705 5712 5723 5740 5753 5762 5771 5781 5782 5777 5774 5782 5782 5779 5778 5782 5780 5779 5780 5778 5775 5775
5585 5584 5586 5584 5588 5604 5609 5622 5612 5606 5618 5619 5619 5631 5642 5648 5649 5659 5663 5659 5661 5675 5691 5698 5710 5723 5738 5748 5760 5764 5770 5767 5767 5776 5775 5769 5772 5772 5773 5772 5773 5776 5773 5773
5572 5569 5576 5570 5567 5578 5599 5600 5597 5592 5589 5596 5598 5603 5610 5618 5624 5639 5642 5643 5647 5655 5673 5684 5696 5707 5721 5732 5746 5747 5752 5758 5761 5762 5763 5762 5764 5769 5768 5767 5766 5765 5767 5764
5575 5569 5566 5569 5561 5581 5591 5584 5582 5573 5581 5582 5586 5591 5591 5589 5603 5622 5626 5633 5635 5637 5653 5668 5681 5692 5705 5717 5729 5738 5739 5737 5742 5743 5747 5747 5753 5756 5764 5753 5759 5756 5751 5750
5564 5562 5563 5554 5552 5562 5576 5575 5565 5572 5570 5567 5572 5579 5586 5591 5593 5602 5613 5618 5623 5632 5648 5657 5665 5679 5689 5702 5711 5719 5723 5727 5731 5741 5738 5741 5735 5740 5741 5745 5740 5734 5738 5736
5552 5561 5560 5553 5563 5574 5564 5557 5557 5552 5550 5557 5562 5573 5579 5586 5588 5595 5602 5606 5613 5624 5641 5658 5659 5669 5676 5685 5698 5703 5705 5708 5714 5720 5722 5720 5721 5724 5728 5729 5718 5712 5723 5726
5561 5553 5551 5550 5567 5563 5561 5557 5551 5545 5542 5550 5559 5570 5578 5584 5584 5590 5592 5597 5606 5617 5616 5625 5651 5656 5668 5662 5671 5682 5688 5696 5699 5703 5704 5710 5712 5715 5713 5709 5705 5703 5714 5712
5564 5552 5558 5556 5558 5557 5557 5552 5547 5541 5542 5551 5562 5571 5581 5583 5582 5582 5582 5587 5603 5592 5596 5594 5627 5639 5638 5646 5651 5661 5673 5679 5684 5689 5689 5696 5700 5700 5704 5693 5690 5695 5700 5703
5560 5564 5558 5558 5560 5548 5550 5548 5543 5538 5544 5549 5557 5562 5567 5567 5574 5577 5579 5579 5587 5575 5581 5597 5609 5619 5627 5637 5640 5648 5659 5667 5673 5674 5678 5680 5684 5685 5687 5679 5679 5679 5680 5681